Weather History for Ocala, FL

Change the Weather History Date:

Friday, February 14, 2014

  Actual Average Record
Temperature  
Mean Temperature 47 °F -  
Max Temperature 64 °F 70 °F 86 °F (1997)
Min Temperature 30 °F 45 °F 21 °F (2006)
Degree Days  
Heating Degree Days 18    
Moisture  
Dew Point 33 °F    
Average Humidity 68    
Maximum Humidity 100    
Minimum Humidity 34    
Precipitation  
Precipitation 0.00 in - - ()
Sea Level Pressure  
Sea Level Pressure 30.00 in    
Wind  
Wind Speed 3 mph (SSW)    
Max Wind Speed 12 mph    
Max Gust Speed -    
Visibility 10 miles    
Events      
Averages and records for this station are not official NWS values.
T = Trace of Precipitation, MM = Missing Value Source: NWS Daily Summary

Daily Weather History Graph

Daily Weather History Graph

Search for Another Location

Airport:

Trip Planner

Search our weather history database for the weather conditions in past years. The results will help you decide how hot, cold, wet, or windy it might be!

Date:

Astronomy

Feb. 14, 2014 Rise Set
Actual Time 7:08 AM EST 6:17 PM EST
Civil Twilight 6:44 AM EST 6:42 PM EST
Nautical Twilight 6:16 AM EST 7:10 PM EST
Astronomical Twilight 5:48 AM EST 7:37 PM EST
Moon 6:16 PM EST (2/14) 6:37 AM EST (2/14)
Length of Visible Light 11h 57m
Length of Day
11h 09m
Full, 100% of the Moon is Illuminated
Feb 14
Full
Feb 14
Full
Feb 22
Last Quarter
Mar 1
New
Mar 8
First Quarter

Hourly Weather History & Observations

Time (EST) Temp. Windchill Dew Point Humidity Pressure Visibility Wind Dir Wind Speed Gust Speed Precip Events Conditions
12:15 AM 35.6 °F 31.7 °F 28.4 °F 75% 29.99 in 10.0 mi South 4.6 mph - N/A   Clear
12:35 AM 35.6 °F 32.8 °F 28.4 °F 75% 29.98 in 10.0 mi SSW 3.5 mph - N/A   Clear
12:55 AM 35.6 °F 31.7 °F 28.4 °F 75% 29.99 in 10.0 mi SSW 4.6 mph - N/A   Clear
1:15 AM 35.6 °F 31.7 °F 28.4 °F 75% 29.98 in 10.0 mi SW 4.6 mph - N/A   Clear
1:35 AM 37.4 °F 33.8 °F 30.2 °F 75% 29.99 in 10.0 mi SW 4.6 mph - N/A   Clear
1:55 AM 37.4 °F 34.9 °F 30.2 °F 75% 29.99 in 10.0 mi SSW 3.5 mph - N/A   Clear
2:15 AM 37.4 °F - 30.2 °F 75% 30.00 in 10.0 mi Calm Calm - N/A   Clear
2:35 AM 35.6 °F - 28.4 °F 75% 29.99 in 9.0 mi Calm Calm - N/A   Clear
2:55 AM 35.6 °F - 28.4 °F 75% 29.98 in 10.0 mi Calm Calm - N/A   Clear
3:15 AM 33.8 °F 30.8 °F 28.4 °F 81% 29.99 in 10.0 mi South 3.5 mph - N/A   Clear
3:35 AM 33.8 °F - 26.6 °F 75% 29.98 in 9.0 mi Calm Calm - N/A   Clear
3:55 AM 33.8 °F - 26.6 °F 75% 29.98 in 9.0 mi Calm Calm - N/A   Clear
4:15 AM 33.8 °F - 26.6 °F 75% 29.99 in 10.0 mi Calm Calm - N/A   Clear
4:35 AM 33.8 °F - 26.6 °F 75% 29.99 in 10.0 mi Calm Calm - N/A   Clear
4:55 AM 32.0 °F - 24.8 °F 75% 30.00 in 9.0 mi Calm Calm - N/A   Clear
5:15 AM 32.0 °F - 24.8 °F 75% 30.00 in 10.0 mi Calm Calm - N/A   Clear
5:35 AM 32.0 °F - 26.6 °F 80% 30.00 in 10.0 mi Calm Calm - N/A   Clear
5:55 AM 32.0 °F - 24.8 °F 75% 30.01 in 10.0 mi Calm Calm - N/A   Clear
6:15 AM 30.2 °F - 24.8 °F 80% 30.02 in 10.0 mi Calm Calm - N/A   Clear
6:35 AM 30.2 °F - 24.8 °F 80% 30.02 in 7.0 mi Calm Calm - N/A   Clear
6:50 AM 30.2 °F - 30.2 °F 100% 30.03 in 1.0 mi Calm Calm - N/A   Clear
7:15 AM 33.8 °F - 30.2 °F 87% 30.04 in 10.0 mi Calm Calm - N/A   Clear
7:50 AM 37.4 °F - 33.8 °F 87% 30.06 in 10.0 mi Calm Calm - N/A   Clear
8:50 AM 42.8 °F - 35.6 °F 76% 30.08 in 10.0 mi Calm Calm - N/A   Clear
9:50 AM 51.8 °F - 35.6 °F 54% 30.08 in 10.0 mi North 5.8 mph - N/A   Clear
10:50 AM 55.4 °F - 35.6 °F 47% 30.08 in 10.0 mi North 4.6 mph - N/A   Clear
11:50 AM 57.2 °F - 33.8 °F 41% 30.06 in 10.0 mi Calm Calm - N/A   Clear
12:00 PM 59.0 °F - 33.8 °F 39% 30.06 in 10.0 mi South 6.9 mph - N/A   Clear
12:50 PM 60.8 °F - 33.8 °F 36% 30.04 in 10.0 mi SW 6.9 mph - N/A   Clear
1:50 PM 62.6 °F - 33.8 °F 34% 30.01 in 10.0 mi SW 5.8 mph - N/A   Clear
2:50 PM 64.4 °F - 35.6 °F 34% 29.99 in 10.0 mi WSW 11.5 mph - N/A   Clear
3:50 PM 62.6 °F - 35.6 °F 37% 29.97 in 10.0 mi SW 11.5 mph - N/A   Clear
4:50 PM 60.8 °F - 35.6 °F 39% 29.97 in 10.0 mi WSW 6.9 mph - N/A   Clear
5:50 PM 57.2 °F - 37.4 °F 48% 29.98 in 10.0 mi WSW 6.9 mph - N/A   Clear
6:50 PM 53.6 °F - 37.4 °F 54% 30.00 in 10.0 mi WSW 6.9 mph - N/A   Clear
7:55 PM 50.0 °F - 37.4 °F 62% 29.99 in 10.0 mi South 3.5 mph - N/A   Clear
8:15 PM 48.2 °F - 37.4 °F 66% 29.99 in 10.0 mi SSW 4.6 mph - N/A   Clear
8:35 PM 46.4 °F 44.3 °F 37.4 °F 71% 29.99 in 10.0 mi South 4.6 mph - N/A   Clear
8:55 PM 46.4 °F 43.5 °F 37.4 °F 71% 29.98 in 10.0 mi South 5.8 mph - N/A   Clear
9:15 PM 46.4 °F 44.3 °F 37.4 °F 71% 29.97 in 10.0 mi South 4.6 mph - N/A   Clear
9:35 PM 46.4 °F 45.2 °F 37.4 °F 71% 29.98 in 10.0 mi South 3.5 mph - N/A   Clear
9:55 PM 44.6 °F 43.1 °F 37.4 °F 76% 29.98 in 10.0 mi South 3.5 mph - N/A   Clear
10:15 PM 46.4 °F 42.9 °F 39.2 °F 76% 29.96 in 10.0 mi South 6.9 mph - N/A   Clear
10:35 PM 46.4 °F 42.9 °F 39.2 °F 76% 29.96 in 10.0 mi South 6.9 mph - N/A   Clear
10:55 PM 46.4 °F 42.9 °F 39.2 °F 76% 29.96 in 10.0 mi South 6.9 mph - N/A   Clear
11:15 PM 46.4 °F 42.9 °F 39.2 °F 76% 29.94 in 10.0 mi South 6.9 mph - N/A   Clear
11:35 PM 46.4 °F 43.5 °F 39.2 °F 76% 29.95 in 10.0 mi SSW 5.8 mph - N/A   Clear
11:55 PM 46.4 °F 43.5 °F 39.2 °F 76% 29.94 in 10.0 mi South 5.8 mph - N/A   Clear